STARLINK-1280, 45388

Orbit data source: Space-Track

STARLINK-1280, 45388 is a payload satellite owned by SpaceX/Seattle (US) in LEO that was launched on Wed, 18 Mar 2020 UTC via an FALCON 9 launch vehicle from the Air Force Eastern Test Range (AFETR). Payload-class satellites include a variety of spacecraft equipped with specific instruments for various scientific and technological missions. These include communications satellites like Starlink; space stations such as the ISS; scientific satellites like the Hubble; Earth observation satellites from companies like Planet Labs, Umbra, and HawkEye 360; GPS; miniature CubeSats for education and research; and military/defense satellites.

Loading next visibility...
Identifier
45388, 2020-019AE
Orbit
LEO
Country
Flag of USUS
Related business
Manufacturer
SpaceX/Seattle
Mission
Partially operational Commercial Communications
Bus & Motor
STARLINK, Unknown motor
Mass
260 kg wet, ~248 kg dry
Launch date (UTC)
2020-03-18 (6 years ago)
Launch vehicle
FALCON 9
Launch site
Air Force Eastern Test Range (AFETR)
Object type
Payload
Rocket body
Debris
Shape & HBR
Box + 1 Pan, 10.1 m
Radar Cross Section
13.562 m², Large (>1 m²)

Expand to show TLE details & history
Last TLE update: 9 hours ago

TLE from 9 hours ago
0 STARLINK-1280
1 45388U 20019AE  25340.91522797  .00026176  00000-0  53608-3 0  9993
2 45388  53.0512 211.1450 0010445 117.1119 243.0954 15.45886354315909
Epoch: 2025-12-06T21:57Z
TLE epoch observation values (Epoch: 2025-12-06T21:57:55.696Z)
Latitude
-0.00001°
Longitude
165.72681°
Altitude
432.892 km
Speed
7.651 km/s
True Right ascension
14h 04m 34s
True Declination
0° 00' 00"
Sunlit
Object was in daylight at epoch
Visualization orbit readout
Latitude
Unknown
Longitude
Unknown
Altitude
Unknown
Speed
Unknown
Apparent Right ascension
Unknown
Apparent Declination
Unknown
Sunlit
N/A
Visualization observer readout
Local Sidereal Time
04:42:39
Azimuth
Unknown
Elevation
Unknown
Doppler factor
Unknown
Orbital elements
Apogee altitude
436.161 km
Perigee altitude
421.941 km
Semi-major axis
6,807.188 km
Eccentricity
0.00104
Inclination
53.0512°
RAAN
211.145°
Arg. of periapsis
117.1119°
True anomaly
242.98873°
Mean anomaly
243.0954°
Eccentric anomaly
243.04206°
Mean motion
3.86448 °/min
Orbital period
93.16 mins
BSTAR
0.00053608
Loading maneuver chart data...
Computing Atmospheric mass density...

Documentation

Showing up to 5 results
|